Wetbulb
56.27 56.36 56.38 56.38 56.61 56.71 56.86 56.86 57.15 57.37 57.39 57.52 57.66 57.98 58.47 59.16 58.91 58.00 52.26 60.02 60.95 75.26 76.06 74.12 72.48 72.89 71.14 69.65 71.25 70.59 61.66 57.09 56.64 60.98 62.56 66.89 64.70 66.53 67.65 64.92 65.54 66.16 65.78 66.97 70.24
55.84 55.76 55.76 56.02 56.13 56.36 56.56 56.53 56.87 56.87 57.04 57.06 57.28 57.45 58.31 58.86 56.54 53.68 62.80 67.97 73.08 75.81 72.23 70.01 67.82 69.68 68.10 65.91 66.93 65.19 60.38 56.95 60.75 64.08 64.79 66.22 66.07 65.70 64.47 63.84 63.87 65.16 67.47 68.94 69.66
55.16 55.16 55.18 55.45 55.60 55.79 56.59 56.82 56.99 56.84 56.77 56.80 56.96 57.24 57.64 58.52 52.57 51.13 68.94 69.45 74.91 74.42 70.96 68.29 67.82 66.70 61.03 62.78 63.09 63.45 57.73 60.38 60.62 63.70 67.71 66.34 65.59 66.97 64.25 62.14 64.44 64.32 65.74 67.72 68.23
54.55 54.75 54.90 54.95 55.14 55.12 55.64 55.86 56.67 56.64 56.07 56.37 56.68 56.98 57.57 57.06 45.89 58.37 74.17 71.52 74.73 70.90 67.85 65.15 64.36 59.48 54.06 53.71 58.87 57.35 60.37 61.02 62.25 66.91 67.06 65.68 67.01 65.36 64.64 64.59 67.54 67.54 67.60 67.87 67.81
54.35 54.39 54.49 54.45 54.48 54.69 54.84 55.14 55.93 56.19 55.81 56.05 56.41 56.64 54.99 49.50 49.13 67.53 73.67 71.86 71.95 68.90 63.24 61.59 60.66 54.51 52.06 53.87 56.41 56.77 57.04 57.28 60.43 67.24 67.42 67.33 65.43 64.95 64.29 67.62 68.46 67.79 67.64 67.60 68.25
54.08 54.21 54.43 54.33 54.77 55.11 55.49 55.66 55.43 55.60 55.77 56.23 56.22 56.10 51.91 44.53 53.38 56.82 60.16 68.02 64.68 65.71 61.38 59.02 57.82 56.66 53.71 53.65 55.31 56.15 57.44 61.59 64.43 66.73 66.92 65.43 65.03 65.92 65.82 67.62 66.63 66.87 67.02 68.24 68.86
53.81 54.17 54.43 54.52 54.38 55.09 54.97 54.88 54.92 55.72 57.17 57.35 56.55 55.12 51.28 48.20 53.86 55.30 58.53 62.69 63.79 63.08 57.44 60.77 58.34 55.91 55.35 53.76 57.04 55.24 59.31 62.08 64.57 66.33 65.18 66.83 62.50 63.61 66.67 66.94 65.74 66.19 67.21 68.26 69.29
53.62 53.89 54.13 54.31 54.40 54.54 54.46 54.27 54.82 57.79 59.61 57.62 57.15 55.55 45.92 53.81 56.18 54.23 55.22 55.37 64.04 62.04 59.22 60.43 60.14 57.05 54.91 55.75 54.11 52.38 59.68 56.89 62.16 65.44 65.48 65.31 58.66 65.07 66.61 65.87 64.95 65.88 66.81 67.67 68.99
53.94 54.03 54.13 54.00 53.94 53.71 53.40 54.00 55.72 58.82 58.30 58.03 54.87 53.25 47.32 58.14 53.71 54.64 55.01 52.53 58.32 58.69 57.88 59.91 58.41 54.85 54.36 51.36 52.00 50.84 53.76 55.87 57.73 65.42 64.43 63.79 59.26 64.64 66.37 65.96 64.84 65.46 66.33 67.13 68.28
54.08 53.96 53.87 53.63 53.44 53.05 53.03 53.00 56.36 58.96 57.86 58.21 56.97 49.75 51.19 50.76 54.57 55.45 54.42 53.26 51.93 52.21 52.88 56.08 54.93 52.21 51.91 50.02 48.75 49.59 51.49 56.51 56.54 60.88 63.27 61.84 60.54 63.87 65.33 65.05 64.82 65.27 66.07 66.73 67.52
54.02 54.04 53.89 53.50 52.96 52.51 50.95 50.69 46.70 47.21 46.64 48.51 49.48 48.93 51.11 54.65 55.70 54.67 53.54 52.01 54.00 52.73 50.66 54.13 51.66 47.88 49.66 51.03 53.85 52.95 53.24 55.07 58.03 59.94 61.33 60.65 61.01 62.73 64.97 64.71 64.37 64.92 65.51 66.42 67.43
54.10 53.91 53.64 53.17 52.43 51.51 48.09 45.02 43.23 44.03 39.13 47.36 46.40 47.66 51.44 53.71 48.81 52.46 53.93 50.30 51.16 47.33 52.30 50.25 49.17 52.44 52.04 51.86 51.20 51.80 51.69 53.79 57.79 59.09 60.21 59.33 59.59 62.99 64.28 64.68 65.19 64.80 65.14 66.18 67.62
53.67 53.44 53.15 52.45 51.90 47.50 45.59 44.79 47.95 47.24 40.86 45.38 47.59 47.48 49.00 50.38 49.07 50.40 52.14 51.21 49.44 48.01 50.38 49.27 50.99 53.77 51.11 50.38 50.13 50.67 51.27 50.90 54.46 57.50 58.79 58.16 56.95 60.48 63.84 64.96 65.83 66.13 66.61 66.96 67.17
53.09 53.01 52.76 51.63 47.20 45.86 44.43 46.46 47.97 46.88 39.91 42.73 44.83 47.87 49.04 50.55 47.43 53.98 53.84 52.19 49.62 46.85 50.09 50.58 53.04 51.86 50.54 49.43 51.76 50.11 51.02 52.18 55.77 55.43 52.10 58.40 50.95 57.30 61.90 62.84 64.19 65.13 65.67 66.24 66.93
52.96 52.90 52.21 50.25 45.89 45.85 47.27 47.97 49.18 44.95 30.85 45.62 46.05 51.58 50.98 48.75 50.62 50.49 54.90 52.29 48.45 48.76 50.66 48.69 50.41 50.02 49.36 50.05 51.80 51.05 52.00 52.16 55.20 53.88 54.26 54.88 53.35 56.32 59.01 60.65 63.20 65.19 66.17 66.77 67.38
52.68 52.27 51.90 47.07 46.53 48.54 48.34 48.11 45.81 38.86 30.28 42.22 46.46 44.85 46.39 48.37 49.16 51.09 51.61 54.38 53.16 50.32 51.03 50.62 53.18 53.04 51.93 52.83 52.29 52.07 51.36 51.32 52.18 51.29 47.37 51.82 52.18 53.29 55.51 59.27 62.11 65.56 66.80 67.39 67.95
52.11 51.44 48.76 48.39 44.91 49.47 47.79 46.40 36.57 31.90 42.71 40.44 40.65 43.21 43.18 43.73 46.91 49.05 48.55 48.61 46.87 44.83 45.44 48.48 49.99 52.78 54.05 50.89 52.07 51.43 50.32 45.49 44.52 44.65 46.50 51.64 51.02 54.21 57.33 59.27 61.72 63.11 66.49 67.85 68.92
51.43 50.30 46.00 47.18 48.87 47.27 46.00 40.29 29.52 36.13 37.85 42.97 41.80 42.20 41.04 43.81 45.51 47.68 47.79 46.42 50.08 48.93 46.23 43.77 42.22 49.53 53.26 51.96 49.46 49.87 50.78 47.67 42.46 43.28 46.40 50.61 48.58 53.15 59.05 61.12 62.40 63.50 65.66 67.88 68.65
50.67 46.00 44.60 46.92 47.56 47.18 43.09 31.75 32.40 36.11 40.19 39.10 40.89 38.97 39.89 41.86 41.31 44.57 47.22 47.10 49.31 49.85 45.79 44.39 44.27 50.58 51.45 53.60 52.78 49.93 47.07 52.57 49.42 46.41 47.53 49.88 52.81 54.98 57.61 58.49 59.02 60.48 62.74 64.83 67.21
45.97 41.08 42.02 45.67 46.62 46.15 39.10 33.09 34.50 39.47 41.69 40.57 35.91 38.84 35.95 38.89 39.29 40.76 46.08 49.66 48.60 50.78 52.02 49.11 43.94 49.38 50.88 52.88 52.40 50.93 52.75 46.14 47.34 43.99 43.40 47.26 48.87 50.81 55.91 57.66 58.90 59.46 60.55 63.85 66.55
42.82 39.75 44.78 47.47 46.86 42.73 33.56 34.13 36.98 42.33 42.71 39.03 37.98 37.37 38.31 37.50 39.18 39.19 42.56 47.70 51.07 49.80 51.32 50.06 48.21 47.31 50.73 48.77 48.50 47.96 47.75 48.52 50.46 49.21 46.27 45.21 48.46 56.71 57.84 58.70 58.63 59.85 61.01 61.88 65.00
41.62 34.86 45.74 46.92 39.57 38.49 36.28 36.23 39.33 40.76 43.70 41.37 41.42 39.64 38.22 39.46 38.64 38.71 39.60 45.93 48.05 50.59 47.56 50.91 48.60 45.09 46.97 51.80 52.96 51.60 49.86 49.92 46.73 45.58 48.19 49.31 49.74 55.96 58.30 59.28 59.05 59.67 63.27 65.23 64.65
37.77 36.46 45.54 45.47 31.79 32.04 36.00 36.80 38.19 38.45 39.96 40.36 39.47 40.65 41.76 39.34 37.10 40.00 41.15 45.99 46.91 47.61 49.69 50.69 47.67 43.61 44.47 47.64 49.49 48.98 49.48 50.29 51.63 51.68 48.48 46.61 49.15 57.50 57.76 58.95 59.45 60.02 63.31 65.45 65.58
39.91 33.35 39.46 40.56 39.56 34.16 31.92 33.56 34.98 41.02 40.45 41.24 40.21 41.86 39.81 39.20 41.84 39.62 40.61 43.61 45.85 47.67 51.74 51.39 48.36 46.71 43.06 46.18 49.07 47.29 48.19 48.58 49.72 47.92 49.27 49.44 52.16 54.87 57.04 58.36 59.93 59.79 59.91 63.59 66.15
39.34 34.90 37.58 31.47 33.94 34.52 34.65 34.10 33.12 35.45 39.73 40.36 38.89 38.87 37.01 36.06 38.18 38.98 40.98 42.39 46.01 47.67 47.93 48.91 46.38 48.45 49.05 48.98 49.61 48.90 47.75 47.69 47.90 49.50 48.02 50.94 50.35 54.91 58.79 58.81 58.80 58.93 60.56 61.79 64.94
37.82 37.25 39.00 34.24 35.48 34.06 33.70 33.36 33.89 34.61 35.52 36.89 36.62 38.06 38.47 36.96 38.60 37.05 39.39 41.20 41.57 44.73 45.33 47.71 47.22 48.66 46.98 48.77 49.23 47.76 49.36 48.96 49.19 49.77 49.76 50.59 50.92 56.06 58.58 58.64 57.96 60.83 60.23 61.72 64.12
42.93 43.37 39.49 33.89 33.66 32.64 33.12 33.69 33.09 35.32 37.34 39.18 38.22 36.60 37.15 39.70 40.90 41.62 42.50 43.16 43.30 40.67 41.88 44.38 47.18 46.72 44.07 47.72 48.03 45.23 49.00 49.54 50.02 51.32 50.72 48.27 53.10 56.27 55.58 56.86 58.84 61.09 61.36 61.53 63.16
MSLP
1019.75 1019.27 1018.78 1018.24 1017.73 1017.22 1016.74 1016.19 1015.71 1015.29 1014.84 1014.36 1013.87 1013.47 1013.01 1012.45 1011.61 1011.23 1009.62 1007.29 1007.53 1008.11 1008.42 1008.91 1009.07 1009.09 1009.25 1008.73 1008.44 1008.21 1007.37 1006.45 1006.07 1006.17 1006.37 1007.44 1008.09 1009.25 1009.79 1010.49 1010.96 1011.54 1011.93 1012.46 1013.93
1019.87 1019.34 1018.83 1018.29 1017.73 1017.18 1016.65 1016.14 1015.60 1015.06 1014.63 1014.23 1013.83 1013.39 1012.89 1012.42 1011.45 1009.39 1006.98 1006.99 1007.17 1007.60 1008.01 1008.08 1008.40 1008.64 1008.62 1008.19 1007.95 1007.50 1006.76 1005.88 1005.58 1005.44 1005.84 1006.93 1007.74 1008.85 1009.67 1010.28 1010.90 1011.58 1012.13 1012.93 1013.95
1020.04 1019.45 1018.90 1018.30 1017.68 1017.05 1016.43 1015.82 1015.35 1014.89 1014.41 1014.02 1013.69 1013.36 1012.91 1012.37 1010.76 1007.47 1006.37 1006.79 1007.26 1007.50 1007.50 1007.73 1008.02 1008.13 1007.83 1007.66 1007.28 1006.99 1005.90 1005.53 1005.19 1005.23 1005.73 1006.67 1007.75 1008.59 1009.12 1009.77 1010.37 1011.04 1011.99 1012.79 1013.66
1020.07 1019.57 1018.99 1018.33 1017.68 1016.99 1016.24 1015.57 1014.91 1014.39 1014.08 1013.75 1013.47 1013.17 1012.77 1012.12 1009.75 1007.11 1006.68 1006.82 1007.32 1007.53 1007.60 1007.62 1007.81 1007.65 1007.21 1006.75 1006.54 1006.38 1005.46 1005.26 1004.97 1005.18 1005.77 1006.49 1007.51 1008.16 1008.78 1009.10 1009.75 1010.95 1011.75 1012.28 1013.02
1020.12 1019.49 1018.86 1018.19 1017.47 1016.68 1015.89 1015.23 1014.57 1013.92 1013.47 1013.32 1013.22 1013.07 1012.51 1011.25 1008.32 1006.97 1006.98 1007.07 1007.45 1007.53 1007.22 1007.18 1007.13 1006.92 1006.50 1006.19 1006.05 1005.80 1004.86 1004.76 1004.82 1005.36 1005.79 1006.71 1007.36 1007.93 1008.71 1009.26 1009.88 1010.92 1012.14 1012.71 1013.06
1020.19 1019.51 1018.78 1017.93 1017.09 1016.19 1015.37 1014.64 1013.95 1013.29 1012.79 1012.64 1012.83 1012.95 1012.19 1009.95 1006.62 1006.74 1006.85 1007.13 1006.79 1007.10 1006.97 1006.99 1006.57 1006.49 1006.15 1005.77 1005.45 1005.18 1005.00 1004.61 1004.83 1005.53 1006.15 1006.76 1007.69 1008.06 1008.87 1009.59 1010.27 1011.00 1011.76 1012.57 1013.19
1020.13 1019.39 1018.60 1017.69 1016.65 1015.67 1014.77 1014.11 1013.23 1012.36 1011.75 1011.73 1012.29 1012.47 1011.21 1007.41 1006.19 1006.46 1006.77 1006.65 1006.55 1006.43 1006.46 1006.51 1006.54 1006.36 1005.99 1005.48 1005.12 1004.96 1004.73 1004.69 1005.23 1005.56 1006.33 1006.97 1007.78 1007.92 1008.82 1009.68 1010.43 1011.25 1011.87 1012.41 1013.04
1020.09 1019.26 1018.40 1017.42 1016.41 1015.30 1014.16 1013.49 1012.66 1011.65 1011.09 1011.33 1012.05 1012.02 1009.30 1006.45 1006.36 1006.53 1006.47 1006.50 1006.52 1006.57 1006.35 1006.40 1006.58 1006.48 1006.20 1005.65 1005.03 1004.53 1004.55 1004.29 1005.23 1005.55 1006.62 1006.58 1006.59 1007.64 1008.83 1009.52 1010.31 1011.05 1011.76 1012.27 1012.69
1019.91 1019.05 1018.20 1017.29 1016.17 1014.98 1013.67 1012.99 1012.36 1011.79 1011.47 1011.77 1012.05 1011.48 1007.93 1006.29 1006.22 1005.58 1005.90 1005.92 1006.52 1006.65 1006.46 1006.38 1006.48 1006.29 1006.09 1005.38 1004.61 1004.29 1003.61 1003.91 1004.92 1005.29 1005.93 1006.42 1006.47 1007.69 1008.79 1009.41 1009.99 1010.75 1011.29 1011.63 1012.29
1019.70 1018.75 1017.90 1016.97 1015.94 1014.68 1013.43 1012.50 1012.26 1012.10 1012.08 1011.73 1011.35 1011.07 1007.23 1005.67 1005.11 1005.19 1005.58 1005.59 1005.97 1006.30 1006.67 1006.48 1006.26 1005.91 1005.67 1004.88 1003.23 1003.13 1003.34 1003.43 1003.67 1004.67 1005.37 1006.02 1006.73 1007.93 1008.78 1009.18 1009.60 1010.33 1010.81 1011.06 1011.40
1019.77 1018.71 1017.61 1016.53 1015.87 1014.55 1013.37 1012.38 1012.59 1012.25 1011.70 1010.80 1010.01 1008.82 1006.87 1005.63 1004.85 1004.70 1005.03 1005.31 1005.37 1005.70 1005.50 1005.91 1005.55 1004.65 1004.23 1003.90 1003.32 1002.71 1002.76 1002.72 1003.21 1003.94 1004.79 1005.27 1006.10 1007.27 1008.30 1008.96 1009.19 1009.62 1010.11 1010.32 1010.48
1019.71 1018.65 1017.72 1016.33 1015.53 1014.57 1013.91 1013.97 1015.32 1015.60 1012.68 1009.85 1008.73 1007.97 1006.52 1006.32 1005.66 1004.38 1004.44 1004.29 1004.45 1004.46 1005.01 1005.68 1004.47 1004.25 1004.45 1004.19 1003.71 1003.02 1002.56 1002.53 1002.90 1003.68 1004.19 1004.87 1005.26 1006.38 1007.19 1007.46 1008.07 1008.54 1009.07 1009.40 1009.82
1019.59 1018.62 1017.70 1016.30 1015.29 1015.06 1015.33 1015.64 1015.99 1015.41 1013.48 1008.30 1006.81 1006.03 1005.16 1005.60 1004.65 1003.75 1003.83 1003.49 1003.33 1003.54 1003.67 1003.54 1003.29 1004.21 1004.27 1003.94 1003.56 1002.82 1002.17 1002.45 1002.36 1003.39 1004.01 1004.32 1004.55 1005.45 1006.17 1006.93 1007.54 1007.92 1008.23 1008.61 1008.80
1019.53 1018.67 1017.78 1016.44 1015.59 1016.21 1015.33 1015.63 1015.70 1015.30 1012.49 1007.68 1005.74 1004.31 1004.37 1004.08 1003.34 1002.60 1002.80 1002.67 1002.99 1002.67 1003.29 1003.50 1003.51 1003.37 1003.57 1003.19 1002.99 1002.28 1002.46 1002.37 1002.49 1002.86 1002.96 1003.69 1003.15 1004.04 1004.59 1005.43 1006.04 1006.59 1006.98 1007.43 1007.85
1019.27 1018.53 1017.84 1017.24 1017.12 1016.27 1015.51 1015.36 1015.12 1014.73 1011.13 1006.05 1004.70 1003.89 1003.84 1003.25 1002.06 1001.37 1001.63 1002.13 1001.69 1001.82 1002.41 1002.21 1002.59 1002.97 1002.80 1002.04 1002.47 1001.87 1002.20 1002.39 1002.69 1002.75 1002.93 1003.35 1003.08 1002.35 1003.42 1003.75 1004.00 1004.62 1005.39 1005.94 1006.56
1019.05 1018.41 1017.72 1017.38 1017.11 1015.99 1015.60 1015.09 1014.75 1013.19 1009.67 1005.87 1004.62 1004.29 1003.85 1003.16 1002.05 1001.61 1001.19 1001.23 1001.42 1001.65 1001.85 1002.00 1002.31 1002.34 1002.00 1002.21 1002.27 1002.38 1002.42 1002.90 1003.17 1002.86 1002.58 1002.36 1002.20 1000.91 1001.35 1001.42 1001.63 1002.83 1003.76 1004.52 1005.19
1018.83 1018.19 1017.50 1017.29 1016.31 1015.72 1015.41 1014.13 1013.74 1011.34 1008.84 1006.93 1006.01 1005.50 1004.62 1003.03 1001.82 1001.24 1000.43 1000.14 999.92 1000.73 1001.08 1001.73 1001.80 1001.70 1001.74 1001.92 1002.27 1001.95 1001.65 1002.39 1002.80 1002.62 1001.78 1002.19 1001.84 1000.26 1000.02 1000.43 1000.47 1000.85 1001.80 1002.67 1003.67
1018.63 1017.87 1017.44 1016.98 1016.24 1015.92 1015.09 1013.81 1012.71 1010.12 1008.67 1007.63 1007.03 1005.98 1004.87 1003.33 1001.83 1000.93 1000.40 999.68 999.36 999.13 999.80 1000.12 1000.95 1000.77 1000.54 1000.45 1000.41 1000.96 1000.58 1000.32 1000.88 1001.37 1001.57 1002.27 1000.49 999.11 999.42 999.36 999.39 999.71 1000.32 1001.37 1002.33
1018.71 1017.84 1017.10 1016.45 1016.11 1015.89 1014.87 1013.49 1011.25 1010.19 1009.44 1008.72 1007.44 1006.48 1005.07 1004.07 1003.29 1001.37 1000.04 999.04 998.42 998.08 998.32 999.19 999.54 999.72 1000.21 1000.12 1000.13 1000.61 1000.58 1000.56 1000.67 1001.83 1000.98 1000.33 999.76 999.13 998.75 998.59 998.74 998.89 999.57 1000.14 1000.89
1019.32 1018.63 1017.23 1016.67 1016.21 1015.60 1014.67 1013.52 1012.17 1011.12 1010.24 1009.54 1008.41 1007.91 1006.68 1005.24 1003.92 1002.28 1000.17 998.69 998.57 998.34 998.13 998.42 998.93 999.17 999.72 1000.14 1000.25 999.95 1000.29 1000.69 1000.55 1000.19 999.94 999.75 999.13 998.15 997.90 997.76 997.92 998.01 998.71 999.27 999.99
1019.55 1018.23 1016.55 1016.45 1016.01 1015.52 1014.92 1014.11 1013.26 1011.99 1011.30 1010.18 1009.04 1008.43 1007.49 1006.57 1005.15 1003.27 1001.15 1000.00 998.78 998.80 998.63 998.53 998.24 999.08 999.02 998.57 998.67 999.84 999.51 999.51 999.47 999.53 998.98 998.84 997.79 997.60 997.50 997.59 997.48 997.33 998.09 998.48 998.97
1020.29 1018.56 1017.12 1016.53 1016.12 1016.42 1015.83 1015.69 1014.86 1012.89 1011.68 1010.56 1009.75 1008.96 1008.19 1007.56 1006.04 1004.51 1002.67 1001.49 1000.93 999.83 998.78 998.53 998.27 998.17 998.27 998.53 998.69 998.58 998.45 998.61 998.48 999.54 999.27 998.50 996.82 997.07 997.10 997.04 997.49 997.57 997.48 997.83 998.17
1020.55 1019.87 1017.78 1017.12 1016.91 1017.04 1016.77 1015.85 1015.01 1013.86 1012.48 1011.26 1009.93 1009.25 1008.62 1007.96 1007.14 1005.30 1003.78 1002.53 1002.02 1000.96 999.45 998.90 998.09 998.14 998.67 998.95 998.83 997.83 998.28 998.29 998.17 998.51 998.43 998.19 996.11 997.11 997.13 997.00 997.28 997.40 997.49 997.82 998.35
1020.89 1019.95 1018.74 1018.57 1018.65 1018.37 1017.69 1016.29 1015.18 1014.12 1013.04 1012.25 1010.94 1009.78 1009.19 1008.19 1007.51 1005.87 1004.72 1003.58 1002.99 1002.04 1001.28 1000.19 998.55 997.35 996.57 996.59 997.25 997.59 997.75 998.15 997.73 997.55 997.58 996.81 996.41 996.92 996.89 996.87 997.01 997.45 997.89 998.27 998.57
1021.23 1020.74 1020.71 1019.74 1018.89 1018.93 1018.51 1017.11 1016.15 1015.06 1013.81 1012.73 1011.57 1010.89 1010.08 1008.87 1007.85 1006.95 1006.16 1005.07 1003.38 1003.02 1001.78 1000.58 998.69 998.01 997.21 996.88 996.92 997.02 997.35 997.72 997.56 997.47 997.08 996.69 997.00 996.60 996.69 996.73 996.79 997.15 997.67 998.04 998.38
1021.38 1021.28 1021.01 1020.43 1019.78 1019.04 1017.93 1017.11 1016.78 1015.99 1015.31 1013.35 1012.52 1011.85 1010.72 1009.33 1008.65 1008.21 1007.74 1006.37 1005.15 1003.86 1002.64 1001.42 999.55 998.65 997.57 997.25 996.91 996.70 996.86 997.07 997.27 997.54 997.60 997.33 996.75 997.00 996.70 997.03 997.10 996.68 997.12 997.13 997.58
1021.51 1021.46 1021.32 1020.37 1019.69 1019.02 1017.79 1017.44 1017.05 1016.67 1015.23 1014.59 1013.80 1012.49 1010.63 1009.59 1009.51 1008.85 1008.61 1007.54 1006.69 1006.22 1004.29 1002.53 1000.66 999.15 997.83 997.80 997.41 996.70 996.53 996.99 997.49 997.63 997.69 997.34 997.03 997.47 997.18 997.09 996.94 996.60 996.71 996.69 996.61
Wind_Speed
22 22 22 22 22 22 22 22 22 21 20 21 21 20 20 19 16 5 7 8 7 19 17 13 7 8 9 4 4 3 2 2 3 8 5 11 7 6 7 15 5 10 7 15 20
23 23 23 23 23 22 22 21 21 21 21 20 20 20 19 18 5 9 8 4 14 18 15 15 11 11 5 3 3 5 2 2 3 6 7 13 10 10 7 15 7 7 11 21 22
23 24 24 24 24 24 22 22 21 20 21 19 18 17 18 15 6 3 7 10 19 14 10 9 12 8 5 3 5 4 4 3 5 7 11 15 10 7 11 11 11 15 22 25 22
24 24 24 25 25 25 25 24 23 22 21 19 16 15 16 4 6 2 2 13 16 7 11 9 11 7 5 6 5 5 10 10 3 8 13 16 12 7 12 2 11 16 24 25 25
25 25 26 26 26 27 27 26 24 23 22 17 13 10 4 2 11 7 8 12 17 9 11 10 12 6 6 4 5 8 7 6 12 12 11 14 10 4 11 2 16 21 23 21 20
25 25 26 27 27 27 27 25 25 24 22 16 9 4 3 8 3 5 8 10 11 15 11 8 9 6 3 4 6 1 5 3 11 11 12 12 6 5 8 10 17 23 24 21 19
25 25 26 27 29 28 29 27 26 24 19 11 10 6 4 16 4 4 3 6 6 15 12 13 3 4 3 4 4 1 3 8 11 14 7 12 5 10 10 14 18 20 20 20 19
25 26 26 28 29 31 31 28 26 17 6 7 13 5 10 3 5 9 8 0 7 7 1 7 4 3 4 5 2 3 3 6 8 14 9 12 3 11 14 17 18 20 19 18 20
25 26 26 27 30 31 31 26 13 9 14 18 8 3 9 1 4 8 10 14 7 3 1 5 5 3 4 5 4 3 5 6 9 14 9 13 3 8 14 15 16 18 19 18 17
27 27 28 29 30 30 31 20 4 7 6 4 4 4 6 1 2 4 8 15 6 11 5 4 4 6 5 9 11 11 6 9 9 14 12 13 8 9 14 15 16 17 18 18 19
26 28 30 31 29 31 15 0 4 1 4 7 6 9 9 10 4 4 7 13 9 10 12 9 9 16 17 19 4 10 8 14 10 11 15 14 11 11 15 14 15 16 18 19 21
26 27 28 32 30 20 5 7 6 5 14 14 20 18 22 8 7 3 14 11 14 14 12 8 18 17 9 10 10 9 10 11 7 11 14 10 14 11 18 21 19 19 19 20 20
27 28 28 32 26 4 5 7 7 5 7 11 9 8 9 15 12 9 14 8 17 18 23 17 11 15 12 12 13 11 13 9 11 8 3 7 11 10 14 16 17 18 18 19 21
27 27 26 32 2 7 2 6 10 5 6 7 5 5 6 8 11 19 18 8 8 23 20 14 9 20 16 20 17 17 10 8 11 13 11 9 9 7 13 18 19 20 21 21 21
27 27 26 9 6 5 11 12 12 5 8 4 2 1 4 11 2 14 18 9 15 14 13 15 19 16 21 25 20 13 12 11 7 7 6 7 6 3 6 13 20 23 23 24 22
29 28 27 0 2 6 11 12 2 2 10 7 5 6 2 11 4 5 15 8 5 9 14 13 4 17 19 15 18 13 11 6 4 4 9 9 9 10 7 10 10 18 23 25 25
29 28 12 3 6 11 11 2 4 6 8 7 10 13 13 7 8 7 20 23 17 16 17 14 12 10 16 16 15 11 17 7 8 8 9 7 9 15 6 7 12 10 21 25 25
30 24 6 4 8 9 4 2 7 5 10 8 11 18 8 6 7 12 15 24 21 14 16 18 18 15 17 16 15 22 19 10 11 9 11 4 10 12 5 6 11 11 13 18 23
26 6 3 5 11 2 2 5 6 6 3 8 13 9 5 4 7 6 16 25 25 23 15 16 15 19 9 11 17 22 12 7 7 2 9 9 10 10 12 12 7 8 9 15 20
9 5 4 12 5 1 3 5 6 3 4 2 8 3 6 11 9 10 12 16 27 24 14 11 11 13 24 16 13 15 17 12 4 11 12 8 7 10 5 6 4 7 7 12 16
3 4 4 12 2 0 4 4 6 9 8 5 5 5 5 10 9 6 3 6 24 20 16 13 10 11 20 19 20 10 16 6 10 7 12 11 11 7 11 8 11 12 7 8 15
4 4 7 9 1 2 2 7 7 11 9 11 9 10 11 10 8 6 5 6 13 7 18 12 8 9 16 23 14 18 15 19 12 9 6 8 15 7 9 6 5 8 11 7 11
5 4 4 6 4 5 8 9 7 7 6 5 6 3 2 4 6 8 5 4 11 10 11 14 9 10 10 9 9 24 14 10 9 9 16 15 17 6 4 7 5 4 8 6 7
3 4 3 4 2 7 10 10 7 7 14 7 7 3 2 6 9 10 8 8 15 8 11 4 8 19 13 16 10 21 20 13 14 12 14 21 16 7 9 8 5 7 3 2 6
2 2 2 5 4 12 7 9 11 4 6 4 3 8 5 4 3 5 5 8 6 9 5 4 18 12 13 7 17 17 21 18 20 17 15 16 15 14 10 7 7 6 2 2 6
3 2 0 7 7 8 7 3 6 6 4 5 7 17 11 3 2 5 8 3 3 9 7 7 8 17 17 14 13 17 17 20 22 21 20 18 17 12 11 7 10 14 7 9 6
1 1 1 5 5 5 4 7 11 15 5 7 12 17 9 3 12 16 14 16 14 7 6 6 2 12 20 14 17 17 16 17 16 17 18 18 17 8 8 10 11 13 9 11 11
Wind_Direction
1 358 355 351 348 345 342 337 334 332 331 330 331 333 332 331 318 168 246 223 177 163 144 135 139 148 179 221 216 186 236 274 197 178 173 155 144 124 112 143 161 173 149 144 153
358 355 351 348 344 340 335 331 329 325 325 325 326 328 329 333 303 264 254 240 147 157 152 163 157 161 194 217 197 224 246 236 233 208 176 166 165 142 145 155 141 136 129 140 155
357 352 349 345 340 335 330 326 322 319 317 318 320 324 325 325 288 244 309 170 158 167 169 175 155 174 213 209 180 167 240 202 249 223 162 154 160 155 147 189 178 170 156 154 163
353 350 345 341 336 332 327 323 319 314 311 311 314 319 320 288 263 126 62 136 164 178 152 157 162 183 212 216 188 232 243 244 245 163 154 160 149 158 172 121 172 166 164 160 168
350 346 342 338 334 329 324 320 315 309 306 301 301 313 314 225 247 170 125 146 165 190 174 185 173 173 210 209 187 236 288 288 229 166 156 145 169 147 186 14 151 152 163 170 173
347 343 339 335 331 325 322 320 315 306 297 285 269 265 194 247 209 186 235 168 185 190 190 179 198 217 247 236 229 148 307 6 152 148 142 154 155 161 179 133 149 158 168 174 183
345 341 337 333 328 325 323 321 317 309 297 264 207 190 214 242 157 120 103 192 194 182 182 197 201 214 177 252 284 303 145 97 148 145 133 143 158 215 153 153 157 169 173 176 186
343 339 336 331 328 326 323 323 321 313 313 150 164 185 247 239 270 258 235 273 166 190 190 194 188 260 248 305 240 191 192 177 169 171 152 190 225 188 163 160 166 173 179 184 191
341 338 336 333 330 327 322 321 323 59 103 125 135 233 257 138 210 222 196 215 155 162 74 121 163 197 189 229 187 202 193 187 163 196 156 201 264 168 171 175 169 179 187 187 195
341 337 337 336 333 327 324 317 164 109 133 221 120 252 236 226 223 159 190 158 162 181 196 186 143 195 183 195 193 186 199 202 183 189 194 202 222 160 183 187 182 187 192 195 196
339 336 336 334 334 326 334 6 337 193 358 274 290 279 284 324 265 194 155 171 138 169 172 186 191 202 195 201 241 190 200 203 193 176 193 224 234 188 186 202 194 194 200 202 206
337 336 337 331 333 328 325 75 76 296 299 261 245 253 256 279 306 209 158 159 179 181 154 158 213 206 217 214 225 195 186 208 200 163 205 198 226 201 190 205 203 200 205 210 209
337 336 338 331 328 20 11 82 348 291 255 286 225 228 219 190 219 229 187 165 186 178 189 197 204 197 207 203 206 202 197 182 214 152 176 181 230 203 208 213 210 214 216 216 214
335 335 339 330 42 338 87 335 332 257 282 272 231 254 173 174 229 207 194 172 181 196 185 211 183 188 195 212 204 207 194 176 166 180 214 208 263 218 204 210 215 213 211 215 215
333 335 338 346 307 329 321 327 322 221 301 47 126 109 162 209 12 194 182 188 187 169 182 189 191 184 197 204 195 216 167 180 165 159 185 180 241 247 192 224 221 218 214 215 213
329 334 336 216 252 275 319 311 203 199 250 318 22 13 343 231 266 121 183 194 156 158 206 187 209 182 203 203 196 139 123 84 87 190 223 194 232 265 220 223 232 215 216 214 213
326 331 332 297 338 331 317 319 224 211 320 340 338 337 319 261 222 206 189 183 176 174 185 189 176 188 186 187 197 195 168 159 197 206 224 185 210 245 237 246 243 222 210 212 211
326 325 325 261 308 328 297 178 237 212 234 336 334 317 275 339 233 202 198 194 196 188 169 185 201 183 188 198 184 200 192 192 194 196 206 146 221 232 253 264 251 239 224 210 208
323 333 315 339 330 295 279 232 235 223 289 321 335 306 296 342 354 284 210 208 193 183 172 187 209 193 181 185 180 186 205 197 191 45 209 197 240 275 253 254 240 249 226 215 207
325 327 289 341 341 301 219 253 268 285 344 325 265 333 317 337 319 337 193 206 202 201 194 186 193 197 190 190 190 197 178 184 223 190 212 193 241 236 195 208 257 279 226 224 215
353 327 9 345 265 29 264 288 307 311 307 274 235 280 273 317 320 299 311 22 198 195 210 167 214 162 185 199 181 166 189 217 195 233 211 222 233 209 230 250 270 283 295 254 217
355 313 8 334 285 46 316 319 313 291 294 260 252 256 271 290 291 285 314 11 357 280 203 183 191 197 191 195 211 200 191 194 196 183 229 246 245 178 222 241 262 278 309 308 222
338 287 331 315 32 1 327 299 264 282 313 299 271 245 217 251 284 274 280 333 7 354 218 184 204 172 182 179 200 203 185 190 211 176 199 216 240 157 231 257 236 265 335 353 191
323 323 335 23 22 359 332 300 298 295 279 279 293 322 301 241 234 275 299 314 334 335 321 258 192 212 204 203 167 197 195 203 201 203 189 220 237 213 216 234 223 210 330 282 215
0 21 32 314 332 323 295 279 282 295 294 298 205 22 332 257 256 255 317 312 291 2 348 274 209 200 204 169 189 180 193 198 213 219 215 207 220 216 209 231 282 298 217 218 197
315 324 39 295 299 300 298 309 307 347 291 315 349 331 327 259 45 323 346 280 343 328 350 355 202 202 215 196 196 202 196 195 208 212 227 240 235 232 248 279 282 279 277 285 215
143 236 267 288 289 294 293 332 314 319 274 260 318 322 306 40 317 288 274 265 273 304 314 344 213 182 213 199 216 229 200 197 201 208 208 214 229 211 229 232 244 257 254 269 282